Showing default

RIGIDSPHERE 2 (LCS 4), 5398

Orbit data source: Space-Track

RIGIDSPHERE 2 (LCS 4), 5398 is an American payload satellite in LEO that was launched on Sat, 07 Aug 1971 UTC via an ATLAS F launch vehicle from the Air Force Western Test Range (AFWTR). Payload-class satellites include a variety of spacecraft equipped with specific instruments for various scientific and technological missions. These include communications satellites like Starlink; space stations such as the ISS; scientific satellites like the Hubble; Earth observation satellites from companies like Planet Labs, Umbra, and HawkEye 360; GPS; miniature CubeSats for education and research; and military/defense satellites.

Loading next visibility...
Identifier
5398, 1971-067E
Orbit
LEO
Country
Flag of USUS
Related business
Manufacturer
ROHR/MITLL
Mission
Operational spacecraft
Bus & Motor
LCS, Unknown motor
Mass
~38 kg wet, ~38 kg dry
Launch date (UTC)
1971-08-07 (55 years ago)
Launch vehicle
ATLAS F
Launch site
Air Force Western Test Range (AFWTR)
Object type
Payload
Rocket body
Debris
Shape & HBR
Unknown
Radar Cross Section
Medium (>0.1 m² and <1 m²)

Expand to show TLE details & history
Last TLE update: 9 hours ago

TLE from 9 hours ago
0 RIGIDSPHERE 2 (LCS 4)
1 05398U 71067E   26094.90952228  .00001013  00000-0  32316-3 0  9997
2 05398  87.6278 359.1484 0061953 114.8762 245.8895 14.37785009863352
Epoch: 2026-04-04T21:49Z
TLE epoch observation values (Epoch: 2026-04-04T21:49:42.724Z)
Latitude
-0°
Longitude
-161.50215°
Altitude
787.208 km
Speed
7.451 km/s
True Right ascension
23h 56m 35s
True Declination
0° 00' 00"
Sunlit
Object was in daylight at epoch
Visualization orbit readout
Latitude
Unknown
Longitude
Unknown
Altitude
Unknown
Speed
Unknown
Apparent Right ascension
Unknown
Apparent Declination
Unknown
Sunlit
N/A
Visualization observer readout
Local Sidereal Time
12:45:16
Azimuth
Unknown
Elevation
Unknown
Doppler factor
Unknown
Orbital elements
Apogee altitude
807.005 km
Perigee altitude
718.525 km
Semi-major axis
7,140.902 km
Eccentricity
0.0062
Inclination
87.6278°
RAAN
359.1484°
Arg. of periapsis
114.8762°
True anomaly
245.24356°
Mean anomaly
245.8895°
Eccentric anomaly
245.56633°
Mean motion
3.59678 °/min
Orbital period
100.09 mins
BSTAR
0.00032316
Loading maneuver chart data...
Computing Atmospheric mass density...
Loading historical data...
Loading historical data...
Loading historical data...
Loading historical data...
Loading historical data...
Loading historical data...
Loading historical data...

Documentation

Showing up to 5 results
|